Regional Weather Roundup
Issued by NWS

Home | Current Version | Previous Version | Graphics & Text | Print | Product List | Glossary Off
Versions: 1 2 3 4 5 6 7 8 9 10 11 12 13 14 15 16 17 18 19 20 21 22 23 24 25 26 27 28 29 30 31 32 33 34 35 36 37 38 39 40 41 42 43 44 45 46 47 48 49 50

891
ASUS43 KDTX 010310
RWRMI
MICHIGAN HOURLY REGIONAL WEATHER ROUNDUP
NATIONAL WEATHER SERVICE DETROIT/PONTIAC MI
1100 PM EDT SUN APR 30 2017

NOTE: "FAIR" INDICATES FEW OR NO CLOUDS BELOW 12,000 FEET WITH NO
SIGNIFICANT WEATHER AND/OR OBSTRUCTION TO VISIBILITY.

MIZ047>049-052>055-059>063-066>070-074>076-081>083-010400-
SOUTHEAST LOWER MICHIGAN

CITY           SKY/WX    TMP DP  RH WIND       PRES   REMARKS
ADRIAN         CLOUDY    54  54 100 E6        29.76F FOG
ALMA           LGT RAIN  42  42 100 NE13      29.82F
ANN ARBOR      LGT RAIN  54  54 100 NE5       29.78S FOG
BAD AXE        LGT RAIN  39  38  99 NE7       29.85F WCI  34
CARO           LGT RAIN  40  40 100 NE6       29.83S
DETROIT CITY   LGT RAIN  52  52 100 E7        29.78F FOG
DETROIT        LGT RAIN  54  54 100 CALM      29.78F FOG
FLINT          HVY RAIN  44  44 100 E8        29.80F FOG
GROSSE ILE     RAIN      54  53  97 E3        29.77S
HILLSDALE      CLOUDY    57  55  94 E8        29.73F FOG
HOWELL         LGT RAIN  47  46  96 NE6       29.78F

CITY           SKY/WX    TMP DP  RH WIND       PRES   REMARKS
JACKSON        LGT RAIN  56  55  97 E6        29.75F
LAMBERTVILLE   CLOUDY    55  54  97 NE3       29.77S FOG
LANSING        CLOUDY    43  40  89 NE9       29.78F
LAPEER         LGT RAIN  44  44  99 CALM      29.83S
MASON          LGT RAIN  46  45  99 NE7       29.76F
MONROE         CLOUDY    53  52  97 E12       29.77S FOG
MT. CLEMENS    RAIN      52  52 100 E3        29.78F
PONTIAC        RAIN      52  50  93 NE5       29.78F FOG
PORT HOPE        N/A     41  40  96 E17       29.84F
PORT HURON     LGT RAIN  52  50  93 NE5       29.82F
TRI CITIES     LGT RAIN  43  43 100 E14       29.83F
MIDLAND        RAIN      40  39  95 NE9       29.83F WCI  34
TROY           HVY RAIN  52  51  93 NE5       29.81F
SAGINAW HB     LGT RAIN  41  37  87 NE10      29.83F
$$
MIZ043>046-050>051-056>058-064>065-071>073-077>080-010400-
SOUTHWEST LOWER MICHIGAN

CITY           SKY/WX    TMP DP  RH WIND       PRES   REMARKS
BATTLE CREEK   LGT RAIN  48  47  96 NE7       29.74F
BENTON HARBOR  CLOUDY    54  51  90 E9        29.65F
BIG RAPIDS     CLOUDY    38  37  92 E12       29.80F WCI  31
COLDWATER      CLOUDY    62  62 100 CALM      29.72F
FREMONT        LGT RAIN  41  40  97 E10       29.76F
HOLLAND        RAIN      45  43  93 E9        29.71F FOG
GRAND RAPIDS   HVY RAIN  43  43 100 E15       29.76S FOG
IONIA          DRIZZLE   42  41  97 E12G21    29.77F
KALAMAZOO      CLOUDY    49  47  93 NE6       29.72F
LUDINGTON      DRIZZLE   41  39  93 E13       29.76F
MARSHALL       HVY RAIN  52  52  99 N5        29.74R
MOUNT PLEASANT DRIZZLE   39  38  95 NE6       29.81F WCI  35
MUSKEGON       LGT RAIN  44  42  93 E14       29.74F FOG
SOUTH HAVEN    CLOUDY    47  47  98 E9G16     29.68F
$$
MIZ016>042-010400-
NORTHERN LOWER MICHIGAN

CITY           SKY/WX    TMP DP  RH WIND       PRES   REMARKS
ALPENA         CLOUDY    37  37 100 E14G21    29.93F FOG     WCI  28
BEAVER ISLAND  CLOUDY    37  36  93 E16G23    29.91F WCI  28
BELLAIRE       CLOUDY    38  33  83 E7        29.88F WCI  32
CADILLAC       CLOUDY    36  35  96 E14G21    29.80F WCI  27
CHARLEVOIX     CLOUDY    38  35  86 E15G22    29.92F WCI  30
FRANKFORT      CLOUDY    40  34  80 E9        29.82F WCI  33
GAYLORD        CLOUDY    36  33  89 E8        29.87F WCI  30
GRAYLING       CLOUDY    35  34  94 E10       29.86F WCI  28
HARBOR SPRINGS CLOUDY    37  36  96 E16       29.90F WCI  27
HOUGHTON LAKE  CLOUDY    36  34  92 E14       29.84F WCI  27
MANISTEE       CLOUDY    41  37  86 E13       29.79F
OSCODA         CLOUDY    39  38  94 NE13      29.88F WCI  32
PELLSTON       CLOUDY    37  35  92 E12       29.91F FOG     WCI  29
ROGERS CITY    CLOUDY    37  36  95 E12       29.96F WCI  30
TRAVERSE CITY  CLOUDY    39  35  86 E10       29.84F WCI  32
$$
MIZ007>008-015-010400-
EASTERN UPPER MICHIGAN

CITY           SKY/WX    TMP DP  RH WIND       PRES   REMARKS
KINROSS        CLOUDY    39  36  89 E13       29.95F WCI  31
MACKINAC ISLAN CLOUDY    37  37 100 E10G18    29.93F WCI  30
NEWBERRY       MIX PCPN  39  37  94 E10       29.94F WCI  32
S. S. MARIE    CLOUDY    43  35  73 E7        29.95F
MUNISING         N/A     43  34  70 E7        29.92F
$$
MIZ004>006-011>014-085-010400-
CENTRAL UPPER MICHIGAN

CITY           SKY/WX    TMP DP  RH WIND       PRES   REMARKS
MANISTIQUE     CLOUDY    39  37  94 E10G17    29.92F WCI  32
ESCANABA       LGT RAIN  39  36  89 E14G24    29.91F WCI  31
MENOMINEE      CLOUDY    38  35  89 E21       29.88F WCI  28
SAWYER-GWINN   CLOUDY    37  28  70 NE3       29.91F
$$
MIZ001>003-009>011-084-010400-
WESTERN UPPER MICHIGAN

CITY           SKY/WX    TMP DP  RH WIND       PRES   REMARKS
IRON MOUNTAIN  LGT RAIN  40  32  73 E10G20    29.86F WCI  33
HOUGHTON       CLOUDY    43  19  38 E7        29.90F
COPPER HARBOR    N/A     40  29  64 CALM      29.94F
IRONWOOD       CLOUDY    40  25  55 E12       29.84F WCI  33
$$

ABBREVIATIONS USED IN REMARKS
   TC - TEMPERATURE IN CELSIUS
  WCI - WIND CHILL INDEX
   HX - HEAT INDEX
  VSB - VISIBILITY





USA.gov is the U.S. government's official web portal to all federal, state and local government web resources and services.